Hourly Data Report for July 31, 2016

OTTAWA INTL A
ONTARIO

45°19'00.000" N
75°40'00.000" W
114.90 m
6106001
71628
YOW

Download Data

Hourly Data (July 2016)
Hourly Data Report for July 31, 2016
TIME
LST
Temp Definition
°C
Dew Point Definition
°C
Rel Hum Definition
%
Precip. Amount Definition
mm

Wind Dir Definition
10's deg

Wind Spd Definition
km/h
Visibility Definition
km
Stn Press Definition
kPa
Hmdx Definition


Wind Chill Definition


Weather Definition


00:00 16.3 12.3 77   6 6 24.1 100.58     LegendNANA
01:00 16.0 12.4 79   7 8 24.1 100.53     Clear
02:00 14.9 12.4 85   3 8 24.1 100.53     LegendNANA
03:00 14.6 12.7 88   3 8 24.1 100.52     LegendNANA
04:00 13.9 12.5 91   3 11 24.1 100.51     Mostly Cloudy
05:00 14.2 12.9 92   5 13 24.1 100.54     LegendNANA
06:00 16.2 13.7 85   6 9 24.1 100.59     LegendNANA
07:00 18.5 14.1 75   4 15 24.1 100.64     Mainly Clear
08:00 21.8 13.6 59   4 17 24.1 100.66 25   LegendNANA
09:00 24.5 12.3 46   7 16 24.1 100.65 27   LegendNANA
10:00 26.1 13.1 44   7 15 24.1 100.62 29   Mostly Cloudy
11:00 26.8 13.0 42   11 19 24.1 100.61 30   LegendNANA
12:00 28.0 12.6 38   8 12 24.1 100.57 31   LegendNANA
13:00 29.3 13.0 36   4 25 24.1 100.54 32   Mostly Cloudy
14:00 29.4 11.7 33   8 16 24.1 100.50 32   LegendNANA
15:00 29.2 12.0 34   8 21 24.1 100.46 31   LegendNANA
16:00 28.6 13.2 38   7 18 24.1 100.44 32   Mostly Cloudy
17:00 26.9 13.5 43   7 13 24.1 100.42 30   LegendNANA
18:00 26.8 13.4 43   10 12 24.1 100.41 30   LegendNANA
19:00 24.7 13.8 50   9 8 24.1 100.44 28   Mostly Cloudy
20:00 22.8 14.0 57   9 9 24.1 100.49 26   LegendNANA
21:00 21.2 14.2 64   6 9 24.1 100.52 25   LegendNANA
22:00 21.0 14.5 66   7 9 24.1 100.52 25   Mostly Cloudy
23:00 19.4 14.3 72   5 12 24.1 100.54     LegendNANA

Notes on Data Quality.

Legend

  • E = Estimated
  • M = Missing
  • NA = Not Available*
  • [empty] = Indicates an unobserved value
Date modified: